Location: Nied?wied?
(53.3665°N, 14.8184°E)
Time: 23:28:47
(UTC+00:00)

IRS-1A Rocket - Pass Details

Date: 03 March 2021
Orbit: 851 x 931 km, 99.2° (Epoch: 12 April)

Event Time Altitude Azimuth Distance (km) Brightness Sun altitude
Exits shadow 18:03:50 - 138° (SE) 2,695 6.4 -12.9°
Reaches altitude 10° 18:04:15 10° 137° (SE) 2,533 6.2 -12.9°
Maximum altitude 18:09:38 49° 64° (ENE) 1,118 4.5 -13.7°
Drops below altitude 10° 18:14:57 10° 351° (N) 2,508 6.9 -14.5°
Sets 18:17:22 0° 347° (NNW) 3,442 7.7 -14.9°
